Location: Bühlhof
(48.7849°N, 8.6361°E)
Time: 23:56:00
(UTC+00:00)

Cosmos 1733 Rocket - Pass Details

Date: 19 January 2026
Orbit: 596 x 621 km, 82.5° (Epoch: 18 February)

Event Time Altitude Azimuth Distance (km) Brightness Sun altitude
Rises 17:50:42 0° 352° (N) 2,896 6.5 -17.4°
Reaches altitude 10° 17:52:58 10° 355° (N) 1,982 5.6 -17.8°
Maximum altitude 17:57:20 67° 78° (ENE) 665 2.9 -18.5°
Drops below altitude 10° 18:01:38 10° 162° (SSE) 1,950 5.5 -19.2°
Sets 18:03:50 0° 165° (SSE) 2,845 6.4 -19.5°
